When you browse on this site, cookies collect data to enhance your experience and personalize the content and advertising you see.
Visit our Privacy Policy to learn more. By continuing to use the site, you agree to this use of cookies and data.
  • în România
  • Lista ţărilor
  • Pe 7 zile
  • Temperatura apei
  • Hartă satelitară
  • Meteo pe hartă
  • Widget-uri
  • user-avatar
    Intrare

    Meteo pe oră la Shaki

    Astăzi, 25 Mai, Sâmbătă

    Timp Temperatura Precipitaţii Vânt Presiune Umiditate
    00:00 +19°C° 0 mm 2 m/s 735 mmHg 57%
    01:00 +19°C° 0 mm 2 m/s 734 mmHg 58%
    02:00 +20°C° 0 mm 1 m/s 734 mmHg 58%
    03:00 +19°C° 0 mm 2 m/s 734 mmHg 62%
    04:00 +21°C° 0.1 mm 1 m/s 734 mmHg 59%
    05:00 +22°C° 0.1 mm 1 m/s 734 mmHg 56%
    06:00 +23°C° 0.1 mm 1 m/s 734 mmHg 53%
    07:00 +25°C° 0 mm 1 m/s 734 mmHg 49%
    08:00 +26°C° 0 mm 2 m/s 734 mmHg 44%
    09:00 +29°C° 0 mm 2 m/s 733 mmHg 37%
    10:00 +30°C° 0 mm 2 m/s 733 mmHg 34%
    11:00 +31°C° 0 mm 2 m/s 733 mmHg 32%
    12:00 +32°C° 0 mm 2 m/s 732 mmHg 29%
    13:00 +34°C° 0 mm 2 m/s 732 mmHg 28%
    14:00 +34°C° 0 mm 2 m/s 731 mmHg 27%
    15:00 +32°C° 0 mm 2 m/s 731 mmHg 26%
    16:00 +32°C° 0.2 mm 2 m/s 731 mmHg 29%
    17:00 +31°C° 0.2 mm 1 m/s 731 mmHg 33%
    18:00 +30°C° 0.2 mm 1 m/s 731 mmHg 36%
    19:00 +28°C° 0.2 mm 1 m/s 731 mmHg 40%
    20:00 +26°C° 0.2 mm 2 m/s 731 mmHg 44%
    21:00 +24°C° 0.2 mm 2 m/s 731 mmHg 48%
    22:00 +24°C° 0.2 mm 2 m/s 732 mmHg 47%
    23:00 +22°C° 0.2 mm 3 m/s 732 mmHg 46%

    Mâine, 26 Mai, Duminică

    Timp Temperatura Precipitaţii Vânt Presiune Umiditate
    00:00 +22°C° 0.2 mm 3 m/s 732 mmHg 46%
    01:00 +22°C° 0 mm 3 m/s 732 mmHg 45%
    02:00 +21°C° 0 mm 3 m/s 732 mmHg 44%
    03:00 +21°C° 0 mm 3 m/s 732 mmHg 43%
    04:00 +21°C° 0 mm 3 m/s 732 mmHg 42%
    05:00 +22°C° 0 mm 3 m/s 733 mmHg 40%
    06:00 +24°C° 0 mm 3 m/s 733 mmHg 39%
    07:00 +26°C° 0 mm 4 m/s 733 mmHg 34%
    08:00 +28°C° 0 mm 4 m/s 733 mmHg 28%
    09:00 +30°C° 0 mm 5 m/s 733 mmHg 23%
    10:00 +32°C° 0 mm 4 m/s 733 mmHg 22%
    11:00 +33°C° 0 mm 4 m/s 733 mmHg 21%
    12:00 +34°C° 0 mm 4 m/s 733 mmHg 20%
    13:00 +34°C° 0 mm 4 m/s 732 mmHg 20%
    14:00 +34°C° 0 mm 3 m/s 732 mmHg 20%
    15:00 +34°C° 0 mm 3 m/s 732 mmHg 20%
    16:00 +31°C° 0 mm 3 m/s 732 mmHg 25%
    17:00 +30°C° 0 mm 2 m/s 732 mmHg 30%
    18:00 +28°C° 0 mm 1 m/s 732 mmHg 34%
    19:00 +26°C° 0 mm 2 m/s 733 mmHg 33%
    20:00 +24°C° 0 mm 2 m/s 734 mmHg 31%
    21:00 +22°C° 0 mm 3 m/s 734 mmHg 30%
    22:00 +21°C° 0 mm 3 m/s 734 mmHg 30%
    23:00 +21°C° 0 mm 3 m/s 734 mmHg 30%

    Poimâine, 27 Mai, Luni

    Timp Temperatura Precipitaţii Vânt Presiune Umiditate
    00:00 +20°C° 0 mm 4 m/s 735 mmHg 31%
    01:00 +20°C° 0 mm 4 m/s 735 mmHg 31%
    02:00 +19°C° 0 mm 4 m/s 735 mmHg 32%
    03:00 +19°C° 0 mm 4 m/s 735 mmHg 33%
    04:00 +19°C° 0 mm 4 m/s 735 mmHg 34%
    05:00 +20°C° 0 mm 4 m/s 735 mmHg 36%
    06:00 +20°C° 0 mm 4 m/s 736 mmHg 38%
    07:00 +22°C° 0 mm 4 m/s 736 mmHg 34%
    08:00 +25°C° 0 mm 4 m/s 736 mmHg 31%
    09:00 +27°C° 0 mm 5 m/s 736 mmHg 27%
    10:00 +28°C° 0 mm 4 m/s 736 mmHg 25%
    11:00 +29°C° 0 mm 4 m/s 736 mmHg 24%
    12:00 +30°C° 0 mm 4 m/s 736 mmHg 22%
    13:00 +30°C° 0 mm 3 m/s 736 mmHg 22%
    14:00 +30°C° 0 mm 3 m/s 736 mmHg 22%
    15:00 +30°C° 0 mm 2 m/s 736 mmHg 23%
    16:00 +29°C° 0 mm 2 m/s 736 mmHg 26%
    17:00 +28°C° 0 mm 2 m/s 736 mmHg 28%
    18:00 +27°C° 0 mm 2 m/s 736 mmHg 31%
    19:00 +25°C° 0 mm 2 m/s 737 mmHg 30%
    20:00 +22°C° 0 mm 3 m/s 737 mmHg 28%
    21:00 +21°C° 0 mm 3 m/s 738 mmHg 26%
    22:00 +20°C° 0 mm 3 m/s 738 mmHg 35%
    23:00 +19°C° 0 mm 2 m/s 738 mmHg 43%

    28 Mai, Marţi

    Timp Temperatura Precipitaţii Vânt Presiune Umiditate
    00:00 +19°C° 0 mm 2 m/s 738 mmHg 52%
    01:00 +18°C° 0 mm 2 m/s 738 mmHg 53%
    02:00 +18°C° 0 mm 2 m/s 738 mmHg 55%
    03:00 +19°C° 0 mm 1 m/s 738 mmHg 57%
    04:00 +20°C° 0 mm 1 m/s 739 mmHg 56%
    05:00 +21°C° 0 mm 1 m/s 739 mmHg 55%
    06:00 +22°C° 0 mm 1 m/s 739 mmHg 54%
    07:00 +23°C° 0 mm 1 m/s 739 mmHg 52%
    08:00 +24°C° 0 mm 2 m/s 739 mmHg 49%
    09:00 +25°C° 0 mm 2 m/s 739 mmHg 47%
    10:00 +26°C° 0.1 mm 3 m/s 739 mmHg 46%
    11:00 +26°C° 0.1 mm 3 m/s 738 mmHg 46%
    12:00 +27°C° 0.1 mm 3 m/s 738 mmHg 45%
    13:00 +27°C° 0.1 mm 3 m/s 738 mmHg 44%
    14:00 +28°C° 0.1 mm 3 m/s 738 mmHg 44%
    15:00 +28°C° 0.1 mm 3 m/s 738 mmHg 44%
    16:00 +27°C° 0.2 mm 3 m/s 738 mmHg 46%
    17:00 +27°C° 0.2 mm 4 m/s 738 mmHg 49%
    18:00 +26°C° 0.2 mm 4 m/s 738 mmHg 52%
    19:00 +25°C° 0.2 mm 3 m/s 738 mmHg 57%
    20:00 +22°C° 0.2 mm 3 m/s 739 mmHg 62%
    21:00 +21°C° 0.2 mm 3 m/s 739 mmHg 67%
    22:00 +20°C° 0.1 mm 3 m/s 739 mmHg 68%
    23:00 +20°C° 0.1 mm 2 m/s 739 mmHg 70%

    29 Mai, Miercuri

    Timp Temperatura Precipitaţii Vânt Presiune Umiditate
    00:00 +19°C° 0.1 mm 2 m/s 739 mmHg 72%
    01:00 +19°C° 0 mm 2 m/s 738 mmHg 72%
    02:00 +20°C° 0 mm 1 m/s 738 mmHg 72%
    03:00 +20°C° 0 mm 1 m/s 738 mmHg 71%
    04:00 +20°C° 0 mm 1 m/s 738 mmHg 68%
    05:00 +21°C° 0 mm 1 m/s 738 mmHg 65%
    06:00 +22°C° 0 mm 1 m/s 739 mmHg 62%
    07:00 +23°C° 0 mm 1 m/s 738 mmHg 59%
    08:00 +24°C° 0 mm 1 m/s 738 mmHg 56%
    09:00 +25°C° 0 mm 2 m/s 738 mmHg 53%
    10:00 +26°C° 0.1 mm 2 m/s 738 mmHg 50%
    11:00 +27°C° 0.1 mm 2 m/s 738 mmHg 47%
    12:00 +28°C° 0.1 mm 2 m/s 737 mmHg 44%
    13:00 +28°C° 0.1 mm 2 m/s 737 mmHg 43%
    14:00 +28°C° 0.1 mm 2 m/s 737 mmHg 42%
    15:00 +29°C° 0.1 mm 2 m/s 736 mmHg 41%
    16:00 +28°C° 0.3 mm 2 m/s 736 mmHg 43%
    17:00 +28°C° 0.3 mm 2 m/s 736 mmHg 45%
    18:00 +28°C° 0.3 mm 2 m/s 736 mmHg 47%
    19:00 +26°C° 0.2 mm 2 m/s 737 mmHg 51%
    20:00 +25°C° 0.2 mm 2 m/s 737 mmHg 54%
    21:00 +23°C° 0.2 mm 2 m/s 737 mmHg 57%
    22:00 +23°C° 0 mm 2 m/s 737 mmHg 59%
    23:00 +21°C° 0 mm 2 m/s 737 mmHg 61%

    30 Mai, Joi

    Timp Temperatura Precipitaţii Vânt Presiune Umiditate
    00:00 +20°C° 0 mm 2 m/s 737 mmHg 63%
    01:00 +20°C° 0 mm 2 m/s 737 mmHg 64%
    02:00 +20°C° 0 mm 2 m/s 737 mmHg 65%
    03:00 +20°C° 0 mm 1 m/s 737 mmHg 66%
    04:00 +21°C° 0 mm 1 m/s 737 mmHg 63%
    05:00 +22°C° 0 mm 1 m/s 737 mmHg 60%
    06:00 +21°C° 0 mm 0 m/s 737 mmHg 57%
    07:00 +24°C° 0 mm 1 m/s 737 mmHg 54%
    08:00 +25°C° 0 mm 1 m/s 737 mmHg 51%
    09:00 +26°C° 0 mm 2 m/s 737 mmHg 49%
    10:00 +27°C° 0.1 mm 2 m/s 736 mmHg 46%
    11:00 +28°C° 0.1 mm 2 m/s 736 mmHg 44%
    12:00 +29°C° 0.1 mm 3 m/s 736 mmHg 42%
    13:00 +29°C° 0.4 mm 2 m/s 735 mmHg 41%
    14:00 +30°C° 0.4 mm 2 m/s 735 mmHg 40%
    15:00 +30°C° 0.4 mm 2 m/s 735 mmHg 39%
    16:00 +30°C° 0.6 mm 2 m/s 735 mmHg 40%
    17:00 +29°C° 0.6 mm 2 m/s 735 mmHg 42%
    18:00 +29°C° 0.6 mm 2 m/s 735 mmHg 43%
    19:00 +27°C° 0.9 mm 3 m/s 736 mmHg 50%
    20:00 +25°C° 0.9 mm 3 m/s 736 mmHg 57%
    21:00 +21°C° 0.9 mm 4 m/s 736 mmHg 65%
    22:00 +21°C° 0.2 mm 3 m/s 736 mmHg 64%
    23:00 +21°C° 0.2 mm 3 m/s 736 mmHg 64%
    Arată mai mult